• In Deutschland
  • Länderverzeichnis
  • Für 7 Tage
  • Wassertemperatur
  • Satellitenkarten
  • Wetterkarte
  • Widgets
  • user-avatar
    Anmelden

    Stündliche Wetter Straubing

    Heute, 21 Juli, Samstag

    Zeit Temperatur Niederschläge Wind Luftdruck Luftfeuchtigkeit
    00:00 +20°C° 0,2 mm 1 m/S 731 mmHg 80%
    01:00 +20°C° 0,2 mm 1 m/S 731 mmHg 82%
    02:00 +20°C° 0,3 mm 1 m/S 731 mmHg 84%
    03:00 +19°C° 0,3 mm 1 m/S 731 mmHg 85%
    04:00 +19°C° 0,3 mm 1 m/S 730 mmHg 87%
    05:00 +20°C° 0,1 mm 1 m/S 730 mmHg 85%
    06:00 +21°C° 0,1 mm 1 m/S 730 mmHg 84%
    07:00 +21°C° 0,1 mm 1 m/S 730 mmHg 82%
    08:00 +23°C° 0,2 mm 1 m/S 730 mmHg 78%
    09:00 +24°C° 0,2 mm 1 m/S 730 mmHg 74%
    10:00 +26°C° 0,2 mm 1 m/S 730 mmHg 69%
    11:00 +26°C° 1 mm 1 m/S 730 mmHg 67%
    12:00 +27°C° 1 mm 1 m/S 730 mmHg 66%
    13:00 +28°C° 1 mm 1 m/S 730 mmHg 64%
    14:00 +28°C° 1,1 mm 1 m/S 730 mmHg 67%
    15:00 +27°C° 1,1 mm 1 m/S 730 mmHg 69%
    16:00 +27°C° 1,1 mm 1 m/S 730 mmHg 71%
    17:00 +25°C° 1,1 mm 1 m/S 730 mmHg 76%
    18:00 +24°C° 1,1 mm 1 m/S 730 mmHg 81%
    19:00 +23°C° 1,1 mm 1 m/S 730 mmHg 86%
    20:00 +22°C° 0,5 mm 1 m/S 731 mmHg 88%
    21:00 +21°C° 0,5 mm 1 m/S 731 mmHg 89%
    22:00 +19°C° 0,5 mm 2 m/S 731 mmHg 91%
    23:00 +19°C° 0,5 mm 2 m/S 731 mmHg 92%

    Morgen, 22 Juli, Sonntag

    Zeit Temperatur Niederschläge Wind Luftdruck Luftfeuchtigkeit
    00:00 +19°C° 0,5 mm 2 m/S 731 mmHg 94%
    01:00 +18°C° 0,5 mm 2 m/S 731 mmHg 95%
    02:00 +18°C° 0,6 mm 2 m/S 731 mmHg 95%
    03:00 +18°C° 0,6 mm 2 m/S 731 mmHg 96%
    04:00 +18°C° 0,6 mm 2 m/S 731 mmHg 97%
    05:00 +18°C° 0,3 mm 2 m/S 731 mmHg 96%
    06:00 +18°C° 0,3 mm 2 m/S 731 mmHg 96%
    07:00 +19°C° 0,3 mm 2 m/S 731 mmHg 96%
    08:00 +19°C° 0,3 mm 2 m/S 732 mmHg 93%
    09:00 +20°C° 0,3 mm 2 m/S 732 mmHg 90%
    10:00 +21°C° 0,3 mm 2 m/S 732 mmHg 87%
    11:00 +23°C° 0,8 mm 2 m/S 731 mmHg 84%
    12:00 +24°C° 0,8 mm 2 m/S 731 mmHg 82%
    13:00 +25°C° 0,8 mm 2 m/S 731 mmHg 79%
    14:00 +25°C° 1,5 mm 2 m/S 731 mmHg 80%
    15:00 +25°C° 1,5 mm 2 m/S 731 mmHg 81%
    16:00 +25°C° 1,5 mm 2 m/S 731 mmHg 81%
    17:00 +24°C° 1,4 mm 1 m/S 731 mmHg 84%
    18:00 +23°C° 1,4 mm 1 m/S 731 mmHg 86%
    19:00 +22°C° 1,4 mm 1 m/S 731 mmHg 89%
    20:00 +22°C° 0,1 mm 1 m/S 731 mmHg 90%
    21:00 +21°C° 0,1 mm 1 m/S 731 mmHg 91%
    22:00 +20°C° 0,1 mm 1 m/S 731 mmHg 92%
    23:00 +20°C° 0 mm 1 m/S 731 mmHg 93%

    übermorgen, 23 Juli, Montag

    Zeit Temperatur Niederschläge Wind Luftdruck Luftfeuchtigkeit
    00:00 +19°C° 0 mm 1 m/S 731 mmHg 94%
    01:00 +19°C° 0 mm 1 m/S 731 mmHg 94%
    02:00 +18°C° 0 mm 1 m/S 731 mmHg 95%
    03:00 +18°C° 0 mm 1 m/S 731 mmHg 95%
    04:00 +18°C° 0 mm 1 m/S 731 mmHg 95%
    05:00 +18°C° 0,1 mm 1 m/S 731 mmHg 95%
    06:00 +19°C° 0,1 mm 1 m/S 732 mmHg 94%
    07:00 +20°C° 0,1 mm 1 m/S 732 mmHg 93%
    08:00 +21°C° 0,6 mm 1 m/S 732 mmHg 89%
    09:00 +23°C° 0,6 mm 1 m/S 732 mmHg 85%
    10:00 +24°C° 0,6 mm 1 m/S 732 mmHg 80%
    11:00 +25°C° 1 mm 1 m/S 732 mmHg 74%
    12:00 +26°C° 1 mm 2 m/S 732 mmHg 67%
    13:00 +28°C° 1 mm 2 m/S 732 mmHg 61%
    14:00 +28°C° 0,6 mm 2 m/S 732 mmHg 60%
    15:00 +28°C° 0,6 mm 2 m/S 732 mmHg 60%
    16:00 +28°C° 0,6 mm 2 m/S 732 mmHg 59%
    17:00 +27°C° 0,4 mm 2 m/S 732 mmHg 66%
    18:00 +25°C° 0,4 mm 2 m/S 733 mmHg 72%
    19:00 +24°C° 0,4 mm 2 m/S 733 mmHg 78%
    20:00 +23°C° 0,1 mm 2 m/S 733 mmHg 81%
    21:00 +21°C° 0,1 mm 1 m/S 733 mmHg 84%
    22:00 +20°C° 0,1 mm 1 m/S 734 mmHg 87%
    23:00 +20°C° 0 mm 1 m/S 734 mmHg 88%

    24 Juli, Dienstag

    Zeit Temperatur Niederschläge Wind Luftdruck Luftfeuchtigkeit
    00:00 +19°C° 0 mm 1 m/S 734 mmHg 89%
    01:00 +19°C° 0 mm 1 m/S 733 mmHg 91%
    02:00 +18°C° 0 mm 1 m/S 733 mmHg 91%
    03:00 +18°C° 0 mm 1 m/S 733 mmHg 92%
    04:00 +18°C° 0 mm 1 m/S 733 mmHg 93%
    05:00 +19°C° 0 mm 1 m/S 733 mmHg 90%
    06:00 +20°C° 0 mm 1 m/S 733 mmHg 88%
    07:00 +21°C° 0 mm 1 m/S 734 mmHg 85%
    08:00 +23°C° 0,1 mm 1 m/S 733 mmHg 79%
    09:00 +25°C° 0,1 mm 1 m/S 733 mmHg 72%
    10:00 +27°C° 0,1 mm 1 m/S 733 mmHg 66%
    11:00 +27°C° 0,1 mm 1 m/S 733 mmHg 63%
    12:00 +28°C° 0,1 mm 1 m/S 733 mmHg 59%
    13:00 +29°C° 0,1 mm 1 m/S 732 mmHg 55%
    14:00 +29°C° 0 mm 2 m/S 732 mmHg 56%
    15:00 +29°C° 0 mm 2 m/S 732 mmHg 56%
    16:00 +29°C° 0 mm 2 m/S 732 mmHg 56%
    17:00 +27°C° 0 mm 2 m/S 732 mmHg 62%
    18:00 +26°C° 0 mm 2 m/S 732 mmHg 68%
    19:00 +25°C° 0 mm 2 m/S 732 mmHg 74%
    20:00 +24°C° 0 mm 2 m/S 732 mmHg 77%
    21:00 +21°C° 0 mm 2 m/S 732 mmHg 81%
    22:00 +20°C° 0 mm 2 m/S 733 mmHg 84%
    23:00 +19°C° 0 mm 2 m/S 732 mmHg 86%

    25 Juli, Mittwoch

    Zeit Temperatur Niederschläge Wind Luftdruck Luftfeuchtigkeit
    00:00 +19°C° 0 mm 1 m/S 732 mmHg 87%
    01:00 +19°C° 0 mm 1 m/S 732 mmHg 89%
    02:00 +18°C° 0 mm 1 m/S 732 mmHg 90%
    03:00 +18°C° 0 mm 1 m/S 732 mmHg 91%
    04:00 +18°C° 0 mm 1 m/S 732 mmHg 91%
    05:00 +19°C° 0 mm 1 m/S 732 mmHg 87%
    06:00 +20°C° 0 mm 1 m/S 733 mmHg 83%
    07:00 +22°C° 0 mm 1 m/S 733 mmHg 79%
    08:00 +23°C° 0 mm 1 m/S 733 mmHg 72%
    09:00 +25°C° 0 mm 1 m/S 733 mmHg 66%
    10:00 +27°C° 0 mm 1 m/S 733 mmHg 59%
    11:00 +28°C° 0 mm 1 m/S 733 mmHg 55%
    12:00 +28°C° 0 mm 1 m/S 733 mmHg 52%
    13:00 +29°C° 0 mm 1 m/S 732 mmHg 49%
    14:00 +29°C° 0 mm 1 m/S 732 mmHg 48%
    15:00 +29°C° 0 mm 1 m/S 732 mmHg 48%
    16:00 +29°C° 0 mm 1 m/S 732 mmHg 48%
    17:00 +28°C° 0 mm 1 m/S 732 mmHg 54%
    18:00 +26°C° 0 mm 1 m/S 732 mmHg 61%
    19:00 +25°C° 0 mm 1 m/S 732 mmHg 67%
    20:00 +24°C° 0 mm 1 m/S 733 mmHg 70%
    21:00 +22°C° 0 mm 1 m/S 733 mmHg 73%
    22:00 +21°C° 0 mm 1 m/S 733 mmHg 76%
    23:00 +20°C° 0 mm 1 m/S 733 mmHg 78%

    26 Juli, Donnerstag

    Zeit Temperatur Niederschläge Wind Luftdruck Luftfeuchtigkeit
    00:00 +18°C° 0 mm 0 m/S 733 mmHg 80%
    01:00 +18°C° 0 mm 0 m/S 733 mmHg 81%
    02:00 +17°C° 0 mm 0 m/S 734 mmHg 82%
    03:00 +17°C° 0 mm 0 m/S 734 mmHg 83%
    04:00 +19°C° 0 mm 1 m/S 734 mmHg 84%
    05:00 +20°C° 0 mm 1 m/S 734 mmHg 82%
    06:00 +21°C° 0 mm 1 m/S 734 mmHg 80%
    07:00 +22°C° 0 mm 1 m/S 734 mmHg 77%
    08:00 +24°C° 0,2 mm 1 m/S 734 mmHg 73%
    09:00 +26°C° 0,2 mm 1 m/S 734 mmHg 68%
    10:00 +26°C° 0,2 mm 0 m/S 734 mmHg 64%
    11:00 +29°C° 0,1 mm 1 m/S 734 mmHg 58%
    12:00 +30°C° 0,1 mm 1 m/S 734 mmHg 53%
    13:00 +31°C° 0,1 mm 1 m/S 734 mmHg 48%
    14:00 +31°C° 0 mm 1 m/S 734 mmHg 49%
    15:00 +30°C° 0 mm 1 m/S 734 mmHg 50%
    16:00 +30°C° 0 mm 1 m/S 733 mmHg 51%
    17:00 +29°C° 0 mm 1 m/S 733 mmHg 57%
    18:00 +26°C° 0 mm 0 m/S 733 mmHg 62%
    19:00 +25°C° 0 mm 0 m/S 733 mmHg 68%
    20:00 +23°C° 0 mm 0 m/S 734 mmHg 70%
    21:00 +22°C° 0 mm 0 m/S 734 mmHg 73%
    22:00 +20°C° 0 mm 0 m/S 734 mmHg 76%
    23:00 +20°C° 0 mm 0 m/S 734 mmHg 78%
    Mehr zeigen